CW2758 Weather Reports


Display with metric or nautical units.
time (UTC)temp
F
wind
direction
speed
MPH
gust
MPH
rain 1hr
in
rain 24hr
in
rain mn
in
humidity
%
barometer
mb
20180821191050 78 9 2.0 12.0 0.00 0.00 0.00 67 1015.3
20180821185548 77 310 0.0 8.0 0.00 0.01 0.00 69 1015.2
20180821184049 77 298 1.0 10.0 0.00 0.01 0.00 69 1014.9
20180821182543 77 333 0.0 10.0 0.00 0.01 0.00 69 1014.8
20180821181051 77 341 0.0 10.0 0.00 0.01 0.00 68 1014.8
20180821175543 76 23 4.0 19.0 0.00 0.01 0.00 69 1014.8
20180821174041 76 285 7.0 17.0 0.00 0.01 0.00 68 1014.7
20180821172538 76 325 6.0 15.0 0.00 0.01 0.00 68 1014.8
20180821171041 76 19 2.0 15.0 0.00 0.01 0.00 69 1014.9
20180821165539 76 355 1.0 12.0 0.00 0.01 0.00 70 1014.8
20180821164033 76 346 0.0 10.0 0.00 0.01 0.00 71 1014.7
20180821162529 75 318 0.0 17.0 0.00 0.01 0.00 71 1014.2
20180821161028 75 327 7.0 19.0 0.00 0.01 0.00 72 1014.2
20180821155527 75 343 2.0 14.0 0.00 0.06 0.00 71 1014.3
20180821154019 74 317 1.0 17.0 0.00 0.06 0.00 73 1014.0
20180821152518 73 291 7.0 14.0 0.00 0.06 0.00 74 1013.7
20180821151014 73 8 1.0 19.0 0.00 0.06 0.00 76 1013.4
20180821145514 72 332 3.0 14.0 0.00 0.14 0.00 77 1013.2
20180821144009 71 17 8.0 19.0 0.00 0.14 0.00 79 1013.1
20180821142506 71 10 5.0 21.0 0.00 0.14 0.00 80 1012.9
20180821141003 70 10 2.0 11.0 0.00 0.14 0.00 83 1012.8
20180821135503 69 8 2.0 11.0 0.00 0.33 0.00 85 1012.6
20180821133958 68 4 5.0 17.0 0.00 0.33 0.00 87 1012.6
20180821132459 67 324 0.0 12.0 0.00 0.33 0.00 90 1012.4
20180821130958 66 335 2.0 9.0 0.00 0.33 0.00 93 1012.4
20180821125454 65 328 0.0 10.0 0.00 0.47 0.00 94 1012.2
20180821123952 65 8 2.0 10.0 0.00 0.47 0.00 95 1011.9
20180821122451 65 19 0.0 10.0 0.00 0.47 0.00 96 1011.7
20180821120949 65 346 0.0 5.0 0.00 0.47 0.00 97 1011.8
20180821115446 65 331 0.0 3.0 0.00 0.49 0.00 97 1011.4
20180821113942 65 10 0.0 4.0 0.00 0.49 0.00 98 1010.7
20180821112441 66 35 0.0 10.0 0.00 0.49 0.00 98 1010.9
20180821110938 66 355 1.0 9.0 0.00 0.49 0.00 98 1010.5
20180821105436 66 360 0.0 8.0 0.00 0.53 0.00 98 1010.3
20180821103933 66 26 1.0 9.0 0.00 0.53 0.00 98 1009.9
20180821102434 66 355 0.0 6.0 0.00 0.53 0.00 98 1009.7
20180821100933 66 360 0.0 6.0 0.00 0.53 0.00 98 1009.4
20180821095427 65 360 0.0 5.0 0.00 0.60 0.00 98 1009.1
20180821093928 65 12 0.0 6.0 0.00 0.60 0.00 98 1009.1
20180821092428 66 4 0.0 8.0 0.00 0.60 0.00 98 1009.0
20180821090925 66 25 0.0 10.0 0.00 0.60 0.00 97 1009.1
20180821085424 66 6 0.0 6.0 0.00 0.60 0.00 97 1009.0
20180821083924 66 350 0.0 4.0 0.00 0.60 0.00 98 1009.0
20180821082424 66 17 0.0 8.0 0.00 0.60 0.00 98 1008.7
20180821080921 66 26 0.0 6.0 0.00 0.60 0.00 98 1009.0
20180821075421 66 318 0.0 5.0 0.00 0.60 0.00 98 1008.9
20180821074412 67 360 0.0 6.0 0.00 0.60 0.00 98 1008.5
20180821035354 69 350 0.0 0.0 0.00 0.60 0.60 94 1008.1
20180821033854 69 350 0.0 0.0 0.00 0.60 0.60 93 1007.8
20180821032356 69 350 0.0 0.0 0.00 0.60 0.60 92 1008.1
20180821030851 70 231 0.0 0.0 0.00 0.60 0.60 91 1007.9
20180821025352 71 231 0.0 0.0 0.00 0.60 0.60 91 1007.9
20180821023851 71 231 0.0 0.0 0.00 0.60 0.60 90 1007.8
20180821022351 71 231 0.0 0.0 0.00 0.60 0.60 90 1008.0
20180821020850 72 231 0.0 0.0 0.00 0.60 0.60 89 1007.8
20180821015353 72 231 0.0 0.0 0.00 0.60 0.60 89 1007.7
20180821013853 72 231 0.0 0.0 0.00 0.60 0.60 88 1007.7
20180821012351 72 231 0.0 0.0 0.00 0.60 0.60 87 1007.5
20180821010848 72 231 0.0 0.0 0.00 0.60 0.60 86 1007.4
20180821005348 73 230 0.0 0.0 0.00 0.60 0.60 83 1007.1
20180821003847 74 230 0.0 0.0 0.00 0.60 0.60 81 1006.7
20180821002349 75 230 0.0 0.0 0.00 0.60 0.60 80 1006.6
20180821000846 75 230 0.0 0.0 0.00 0.60 0.60 78 1006.4
20180820235347 75 230 0.0 1.0 0.00 0.60 0.60 77 1006.5
20180820233846 76 224 0.0 3.0 0.00 0.60 0.60 75 1006.6
20180820232344 76 222 0.0 3.0 0.00 0.60 0.60 73 1006.5
20180820230846 77 208 0.0 5.0 0.00 0.60 0.60 72 1006.5
20180820225344 78 239 0.0 8.0 0.00 0.60 0.60 71 1006.2
20180820223843 78 229 0.0 6.0 0.00 0.60 0.60 70 1005.9
20180820222342 76 233 0.0 4.0 0.00 0.60 0.60 75 1006.0
20180820220841 76 206 0.0 0.0 0.00 0.60 0.60 77 1005.9
20180820215342 77 171 0.0 11.0 0.00 0.60 0.60 74 1006.0
20180820213840 77 163 2.0 16.0 0.00 0.60 0.60 73 1006.3
20180820212338 77 228 5.0 17.0 0.00 0.60 0.60 73 1006.2
20180820210839 77 195 6.0 16.0 0.00 0.60 0.60 74 1006.1
20180820205336 75 236 1.0 14.0 0.00 0.60 0.60 81 1006.2
20180820203837 75 236 3.0 14.0 0.00 0.60 0.60 81 1006.2
20180820202340 76 177 3.0 12.0 0.00 0.60 0.60 78 1006.0
20180820200834 76 175 1.0 9.0 0.00 0.60 0.60 80 1006.0
20180820195336 76 239 5.0 14.0 0.00 0.60 0.60 84 1006.1
20180820193833 75 148 5.0 18.0 0.00 0.60 0.60 79 1006.3
20180820192334 77 202 5.0 16.0 0.01 0.60 0.60 75 1006.1